CW6955 Weather Reports


time (UTC)temp
F
wind
direction
speed
knots
gust
knots
rain 1hr
in
rain 24hr
in
rain mn
in
humidity
%
barometer
mb
20260506014412 59 134 7.8 15.6 0.00 0.00 0.00 70 1005.4
20260506014012 59 142 7.8 15.6 0.00 0.00 0.00 70 1005.4
20260506013812 59 144 7.8 15.6 0.00 0.00 0.00 70 1005.3
20260506013612 59 149 8.7 14.8 0.00 0.00 0.00 70 1005.3
20260506013412 59 149 8.7 14.8 0.00 0.00 0.00 70 1005.4
20260506012612 59 144 8.7 16.5 0.00 0.00 0.00 70 1005.3
20260506012411 59 144 8.7 17.4 0.00 0.00 0.00 70 1005.3
20260506012212 59 143 8.7 19.1 0.00 0.00 0.00 70 1005.3
20260506011612 59 143 8.7 19.1 0.00 0.00 0.00 70 1005.3
20260506011412 59 144 8.7 19.1 0.00 0.00 0.00 70 1005.3
20260506011212 59 145 9.6 16.5 0.00 0.00 0.00 70 1005.3
20260506010812 59 142 9.6 16.5 0.00 0.00 0.00 70 1005.2
20260506010612 59 138 10.4 16.5 0.00 0.00 0.00 70 1005.2
20260506010411 59 132 10.4 16.5 0.00 0.00 0.00 70 1005.2
20260506010211 59 129 11.3 16.5 0.00 0.00 0.00 70 1005.2
20260506010012 59 127 12.2 19.1 0.00 0.00 0.00 70 1005.1
20260506005812 59 124 12.2 19.1 0.00 0.00 0.00 70 1005.0
20260506005612 59 122 13.0 19.1 0.00 0.00 0.00 70 1005.0
20260506005412 59 120 13.0 22.6 0.00 0.00 0.00 70 1005.0
20260506005212 59 118 12.2 22.6 0.00 0.00 0.00 70 1005.0
20260506005012 59 118 12.2 22.6 0.00 0.00 0.00 70 1004.9
20260506004812 59 119 12.2 22.6 0.00 0.00 0.00 70 1004.9
20260506004611 59 119 12.2 22.6 0.00 0.00 0.00 70 1004.9
20260506004211 59 123 12.2 20.9 0.00 0.00 0.00 70 1004.9
20260506004012 59 122 11.3 20.9 0.00 0.00 0.00 70 1004.8
20260506003812 59 121 11.3 20.0 0.00 0.00 0.00 70 1004.8
20260506003612 59 122 11.3 20.0 0.00 0.00 0.00 70 1004.9
20260506003412 59 122 11.3 20.0 0.00 0.00 0.00 69 1004.8
20260506003212 59 119 10.4 20.0 0.00 0.00 0.00 69 1004.8
20260506003012 59 119 10.4 20.0 0.00 0.00 0.00 69 1004.8
20260506002812 59 119 10.4 19.1 0.00 0.00 0.00 69 1004.8
20260506002612 59 118 10.4 19.1 0.00 0.00 0.00 69 1004.8
20260506002412 59 118 10.4 19.1 0.00 0.00 0.00 69 1004.7
20260506002212 59 119 10.4 19.1 0.00 0.00 0.00 69 1004.7
20260506002012 60 119 11.3 19.1 0.00 0.00 0.00 69 1004.7
20260506001612 60 118 12.2 23.5 0.00 0.00 0.00 69 1004.7
20260506001412 60 119 12.2 23.5 0.00 0.00 0.00 69 1004.7
20260506001211 60 120 12.2 23.5 0.00 0.00 0.00 68 1004.7
20260506000612 60 121 13.0 20.9 0.00 0.00 0.00 68 1004.7
20260506000412 60 119 13.0 22.6 0.00 0.00 0.00 68 1004.7
20260506000212 60 118 13.0 22.6 0.00 0.00 0.00 68 1004.7
20260506000012 60 117 13.0 22.6 0.00 0.00 0.00 68 1004.7
20260505235612 60 115 12.2 22.6 0.00 0.00 0.00 68 1004.7
20260505235412 60 116 12.2 21.7 0.00 0.00 0.00 68 1004.6
20260505235211 60 117 11.3 20.9 0.00 0.00 0.00 68 1004.6
20260505235011 60 119 11.3 20.9 0.00 0.00 0.00 67 1004.6
20260505234811 60 121 11.3 20.9 0.00 0.00 0.00 67 1004.6
20260505234612 60 122 11.3 20.9 0.00 0.00 0.00 67 1004.5
20260505234212 60 121 12.2 21.7 0.00 0.00 0.00 67 1004.6
20260505234012 60 121 12.2 21.7 0.00 0.00 0.00 67 1004.6
20260505233813 60 121 12.2 21.7 0.00 0.00 0.00 67 1004.6
20260505233612 60 120 13.0 21.7 0.00 0.00 0.00 66 1004.5
20260505233412 60 121 13.0 21.7 0.00 0.00 0.00 66 1004.5
20260505233212 60 121 13.0 21.7 0.00 0.00 0.00 66 1004.7
20260505233012 60 120 13.0 21.7 0.00 0.00 0.00 66 1004.7
20260505232812 60 119 13.0 21.7 0.00 0.00 0.00 66 1004.6
20260505232613 61 119 12.2 21.7 0.00 0.00 0.00 66 1004.6
20260505232411 61 118 12.2 21.7 0.00 0.00 0.00 66 1004.7
20260505232012 61 118 11.3 24.3 0.00 0.00 0.00 65 1004.5
20260505231812 61 119 10.4 24.3 0.00 0.00 0.00 65 1004.6
20260505231412 61 121 9.6 24.3 0.00 0.00 0.00 65 1004.6
20260505231212 61 122 9.6 24.3 0.00 0.00 0.00 65 1004.6
20260505231012 61 126 9.6 20.0 0.00 0.00 0.00 65 1004.6
20260505230812 61 130 9.6 18.2 0.00 0.00 0.00 65 1004.6
20260505230612 61 130 10.4 18.2 0.00 0.00 0.00 64 1004.7
20260505230412 61 132 11.3 18.2 0.00 0.00 0.00 64 1004.7
20260505230212 61 132 11.3 22.6 0.00 0.00 0.00 64 1004.7
20260505230011 61 130 11.3 22.6 0.00 0.00 0.00 64 1004.7
20260505225812 61 127 11.3 22.6 0.00 0.00 0.00 64 1004.6
20260505225612 61 129 10.4 23.5 0.00 0.00 0.00 64 1004.7
20260505225413 61 124 10.4 23.5 0.00 0.00 0.00 64 1004.6
20260505225212 61 125 9.6 23.5 0.00 0.00 0.00 64 1004.6
20260505225011 61 125 9.6 23.5 0.00 0.00 0.00 64 1004.6
20260505224611 61 124 8.7 19.1 0.00 0.00 0.00 63 1004.7
20260505224412 61 125 8.7 19.1 0.00 0.00 0.00 63 1004.7
20260505224011 61 121 8.7 19.1 0.00 0.00 0.00 63 1004.6
20260505223811 61 122 8.7 15.6 0.00 0.00 0.00 63 1004.6
20260505223611 61 122 9.6 15.6 0.00 0.00 0.00 63 1004.7
20260505223412 61 126 9.6 15.6 0.00 0.00 0.00 63 1004.8
20260505223212 61 125 9.6 16.5 0.00 0.00 0.00 63 1004.7
20260505222812 61 127 9.6 19.1 0.00 0.00 0.00 63 1004.8
20260505222212 62 123 8.7 19.1 0.00 0.00 0.00 63 1004.8
20260505222012 62 123 8.7 19.1 0.00 0.00 0.00 63 1004.8
20260505221812 62 121 8.7 16.5 0.00 0.00 0.00 63 1004.7
20260505221612 62 120 8.7 16.5 0.00 0.00 0.00 63 1004.8
20260505221411 62 123 8.7 16.5 0.00 0.00 0.00 63 1004.8
20260505220612 62 125 9.6 16.5 0.00 0.00 0.00 63 1004.8
20260505220412 62 123 9.6 16.5 0.00 0.00 0.00 62 1004.8
20260505220212 62 122 9.6 16.5 0.00 0.00 0.00 62 1004.8
20260505220013 62 123 8.7 16.5 0.00 0.00 0.00 62 1004.7
20260505215811 62 124 8.7 16.5 0.00 0.00 0.00 62 1004.8
20260505215611 62 123 7.8 16.5 0.00 0.00 0.00 62 1004.8
20260505215411 62 125 7.8 16.5 0.00 0.00 0.00 62 1004.8
20260505215212 62 128 7.8 16.5 0.00 0.00 0.00 62 1004.8
20260505215012 62 127 7.8 16.5 0.00 0.00 0.00 62 1004.8
20260505214812 62 127 8.7 16.5 0.00 0.00 0.00 62 1004.8
20260505214612 62 127 8.7 16.5 0.00 0.00 0.00 62 1004.9
20260505214412 62 128 8.7 14.8 0.00 0.00 0.00 62 1005.0
20260505214012 62 125 9.6 18.2 0.00 0.00 0.00 61 1005.0
20260505213811 62 124 9.6 18.2 0.00 0.00 0.00 61 1005.0
20260505213611 62 125 8.7 18.2 0.00 0.00 0.00 61 1005.0
20260505213412 63 125 8.7 20.9 0.00 0.00 0.00 61 1004.9
20260505213212 63 127 7.8 20.9 0.00 0.00 0.00 61 1004.9
20260505212811 63 129 7.8 20.9 0.00 0.00 0.00 61 1004.9
20260505212611 63 128 8.7 20.9 0.00 0.00 0.00 61 1004.9
20260505212412 63 126 8.7 16.5 0.00 0.00 0.00 60 1004.9
20260505212212 63 124 8.7 16.5 0.00 0.00 0.00 60 1004.9
20260505212012 63 122 8.7 17.4 0.00 0.00 0.00 60 1004.9
20260505211812 63 121 8.7 17.4 0.00 0.00 0.00 60 1004.8
20260505211612 63 122 8.7 17.4 0.00 0.00 0.00 60 1004.8
20260505210811 63 119 8.7 15.6 0.00 0.00 0.00 60 1004.9
20260505210611 63 119 8.7 15.6 0.00 0.00 0.00 59 1004.9
20260505210412 63 121 8.7 14.8 0.00 0.00 0.00 59 1004.9
20260505210212 63 121 8.7 14.8 0.00 0.00 0.00 59 1004.9
20260505210012 63 121 8.7 17.4 0.00 0.00 0.00 59 1004.9
20260505205812 63 120 8.7 17.4 0.00 0.00 0.00 59 1005.0
20260505205612 63 121 8.7 17.4 0.00 0.00 0.00 59 1005.0
20260505205411 64 120 8.7 18.2 0.00 0.00 0.00 59 1005.0
20260505205211 64 121 8.7 18.2 0.00 0.00 0.00 59 1005.0
20260505205011 64 121 8.7 18.2 0.00 0.00 0.00 59 1005.0
20260505204811 64 121 8.7 18.2 0.00 0.00 0.00 58 1005.0
20260505204611 64 122 8.7 18.2 0.00 0.00 0.00 58 1005.0
20260505204212 64 122 8.7 19.1 0.00 0.00 0.00 58 1004.9
20260505204012 64 124 8.7 19.1 0.00 0.00 0.00 58 1004.9
20260505203812 64 125 8.7 19.1 0.00 0.00 0.00 58 1005.0
20260505203412 64 123 9.6 19.1 0.00 0.00 0.00 58 1004.9
20260505203211 64 124 9.6 18.2 0.00 0.00 0.00 58 1005.0
20260505203011 64 124 8.7 18.2 0.00 0.00 0.00 57 1005.0
20260505202811 64 125 9.6 18.2 0.00 0.00 0.00 58 1005.0
20260505202612 64 126 9.6 17.4 0.00 0.00 0.00 58 1005.0
20260505202412 64 125 9.6 15.6 0.00 0.00 0.00 57 1004.9
20260505202211 64 124 9.6 17.4 0.00 0.00 0.00 57 1004.9
20260505202012 64 123 9.6 17.4 0.00 0.00 0.00 57 1004.9
20260505201612 64 121 9.6 18.2 0.00 0.00 0.00 57 1004.9
20260505201212 64 122 9.6 20.9 0.00 0.00 0.00 56 1004.9
20260505201012 64 124 8.7 20.9 0.00 0.00 0.00 56 1004.9
20260505200812 64 125 8.7 20.9 0.00 0.00 0.00 56 1004.9
20260505200611 64 124 8.7 20.9 0.00 0.00 0.00 56 1004.9
20260505200411 64 122 8.7 20.0 0.00 0.00 0.00 56 1004.9
20260505195811 64 122 8.7 15.6 0.00 0.00 0.00 55 1004.9
20260505195611 64 124 8.7 15.6 0.00 0.00 0.00 55 1004.9
20260505195211 65 125 8.7 16.5 0.00 0.00 0.00 55 1005.0
20260505195012 65 125 8.7 16.5 0.00 0.00 0.00 55 1004.9
20260505194812 65 124 8.7 18.2 0.00 0.00 0.00 55 1004.9
20260505194412 65 124 9.6 18.2 0.00 0.00 0.00 54 1004.8
20260505194011 65 125 9.6 18.2 0.00 0.00 0.00 54 1004.9
20260505193811 65 126 9.6 18.2 0.00 0.00 0.00 53 1004.8
20260505193611 65 128 9.6 18.2 0.00 0.00 0.00 53 1004.9
20260505193412 65 127 9.6 17.4 0.00 0.00 0.00 53 1004.9
20260505193012 65 128 9.6 17.4 0.00 0.00 0.00 53 1004.9
20260505192811 65 129 9.6 17.4 0.00 0.00 0.00 53 1004.9
20260505192611 65 129 8.7 17.4 0.00 0.00 0.00 52 1004.9
20260505192211 65 133 8.7 17.4 0.00 0.00 0.00 52 1005.0
20260505192011 65 132 8.7 18.2 0.00 0.00 0.00 52 1005.0
20260505191611 65 134 8.7 18.2 0.00 0.00 0.00 52 1005.0
20260505191411 66 133 8.7 21.7 0.00 0.00 0.00 51 1005.0
20260505191212 66 135 8.7 21.7 0.00 0.00 0.00 51 1005.0
20260505191012 66 135 8.7 21.7 0.00 0.00 0.00 51 1005.1
20260505190812 66 137 8.7 21.7 0.00 0.00 0.00 51 1005.1
20260505190612 66 138 8.7 21.7 0.00 0.00 0.00 51 1005.0
20260505190412 66 139 8.7 18.2 0.00 0.00 0.00 51 1005.1
20260505190211 66 137 7.8 18.2 0.00 0.00 0.00 51 1005.2
20260505190011 66 138 7.8 18.2 0.00 0.00 0.00 50 1005.2
20260505185811 66 134 7.8 18.2 0.00 0.00 0.00 50 1005.1
20260505185612 66 131 7.8 17.4 0.00 0.00 0.00 50 1005.1
20260505185412 66 131 7.8 17.4 0.00 0.00 0.00 50 1005.1
20260505185212 66 131 7.8 16.5 0.00 0.00 0.00 50 1005.1
20260505185011 66 132 8.7 16.5 0.00 0.00 0.00 50 1005.1
20260505184411 66 136 8.7 17.4 0.00 0.00 0.00 49 1005.1
20260505184211 67 138 8.7 17.4 0.00 0.00 0.00 48 1005.1
20260505184012 67 136 7.8 20.9 0.00 0.00 0.00 48 1005.1
20260505183812 67 136 7.8 20.9 0.00 0.00 0.00 48 1005.2
20260505183612 67 135 7.8 20.9 0.00 0.00 0.00 48 1005.0
20260505183412 67 138 7.0 20.9 0.00 0.00 0.00 48 1005.0
20260505183212 67 137 7.0 20.9 0.00 0.00 0.00 47 1005.0
20260505182411 67 144 8.7 15.6 0.00 0.00 0.00 46 1005.0
20260505182211 67 144 9.6 18.2 0.00 0.00 0.00 45 1005.1
20260505182012 67 143 9.6 18.2 0.00 0.00 0.00 45 1005.0
20260505181812 68 142 9.6 18.2 0.00 0.00 0.00 45 1005.1
20260505181612 68 143 9.6 18.2 0.00 0.00 0.00 45 1005.1
20260505181412 68 143 9.6 20.0 0.00 0.00 0.00 45 1005.0
20260505181212 68 144 8.7 20.9 0.00 0.00 0.00 44 1005.0
20260505181011 68 145 8.7 20.9 0.00 0.00 0.00 45 1005.0
20260505180812 68 146 8.7 20.9 0.00 0.00 0.00 45 1004.9
20260505180612 68 146 8.7 20.9 0.00 0.00 0.00 45 1005.0
20260505180412 68 145 8.7 20.9 0.00 0.00 0.00 45 1005.0
20260505180211 68 145 8.7 15.6 0.00 0.00 0.00 45 1004.9
20260505180011 68 143 9.6 15.6 0.00 0.00 0.00 45 1005.0
20260505175411 69 146 10.4 21.7 0.00 0.00 0.00 45 1005.0
20260505175212 69 146 10.4 21.7 0.00 0.00 0.00 45 1004.8
20260505175012 69 147 9.6 21.7 0.00 0.00 0.00 45 1004.9
20260505174812 69 145 9.6 21.7 0.00 0.00 0.00 45 1004.9
20260505174611 69 142 9.6 20.0 0.00 0.00 0.00 45 1005.0
20260505174411 69 141 9.6 17.4 0.00 0.00 0.00 45 1005.0
20260505174211 69 140 10.4 17.4 0.00 0.00 0.00 45 1004.9
20260505174011 69 139 10.4 17.4 0.00 0.00 0.00 45 1004.9
20260505173811 69 140 11.3 20.9 0.00 0.00 0.00 45 1004.9
20260505173611 69 141 11.3 24.3 0.00 0.00 0.00 45 1004.9
20260505173412 69 138 12.2 24.3 0.00 0.00 0.00 44 1004.8
20260505173212 70 138 12.2 24.3 0.00 0.00 0.00 44 1004.9
20260505173012 70 136 11.3 24.3 0.00 0.00 0.00 44 1004.8
20260505172812 70 134 11.3 24.3 0.00 0.00 0.00 44 1004.9
20260505172612 70 134 11.3 22.6 0.00 0.00 0.00 44 1004.9
20260505172411 70 137 11.3 22.6 0.00 0.00 0.00 44 1004.9
20260505172211 70 137 11.3 21.7 0.00 0.00 0.00 44 1004.8
20260505172011 71 140 11.3 20.9 0.00 0.00 0.00 44 1004.9
20260505171811 71 143 11.3 20.9 0.00 0.00 0.00 44 1004.8
20260505171612 71 146 10.4 21.7 0.00 0.00 0.00 44 1004.8
20260505171412 71 147 10.4 21.7 0.00 0.00 0.00 44 1004.9
20260505171211 71 149 10.4 21.7 0.00 0.00 0.00 44 1004.8
20260505171011 71 151 10.4 21.7 0.00 0.00 0.00 45 1004.8
20260505170811 72 151 10.4 21.7 0.00 0.00 0.00 44 1004.9
20260505170611 72 150 10.4 17.4 0.00 0.00 0.00 44 1004.9
20260505170411 72 149 10.4 17.4 0.00 0.00 0.00 44 1004.8
20260505170011 72 147 11.3 20.0 0.00 0.00 0.00 43 1004.8
20260505165812 72 144 12.2 20.0 0.00 0.00 0.00 43 1004.7
20260505165612 73 143 12.2 21.7 0.00 0.00 0.00 43 1004.7
20260505165412 73 145 12.2 21.7 0.00 0.00 0.00 42 1004.7
20260505165211 73 147 13.0 24.3 0.00 0.00 0.00 42 1004.7
20260505165012 73 148 13.0 24.3 0.00 0.00 0.00 42 1004.6
20260505164812 73 151 13.0 24.3 0.00 0.00 0.00 41 1004.6
20260505164412 74 149 12.2 24.3 0.00 0.00 0.00 41 1004.6
20260505164011 74 145 11.3 24.3 0.00 0.00 0.00 40 1004.6
20260505163811 74 139 11.3 20.9 0.00 0.00 0.00 40 1004.5
20260505163611 74 136 11.3 20.0 0.00 0.00 0.00 41 1004.5
20260505163011 75 132 11.3 23.5 0.00 0.00 0.00 40 1004.4
20260505162411 75 135 12.2 23.5 0.00 0.00 0.00 40 1004.5
20260505162211 76 135 12.2 23.5 0.00 0.00 0.00 40 1004.6
20260505162011 76 132 12.2 22.6 0.00 0.00 0.00 40 1004.5
20260505161811 76 128 12.2 20.9 0.00 0.00 0.00 40 1004.5
20260505161412 76 131 11.3 26.1 0.00 0.00 0.00 40 1004.5
20260505161212 76 131 11.3 26.1 0.00 0.00 0.00 40 1004.6
20260505161012 76 130 11.3 26.1 0.00 0.00 0.00 40 1004.6
20260505160611 77 133 11.3 22.6 0.00 0.00 0.00 39 1004.6
20260505153211 78 130 9.6 20.0 0.00 0.00 0.00 36 1004.6
20260505153011 78 129 9.6 20.0 0.00 0.00 0.00 36 1004.6
20260505152812 78 131 9.6 20.0 0.00 0.00 0.00 36 1004.6
20260505152611 78 134 9.6 20.0 0.00 0.00 0.00 36 1004.6
20260505152411 78 135 9.6 20.0 0.00 0.00 0.00 36 1004.6
20260505152212 78 140 9.6 20.0 0.00 0.00 0.00 36 1004.6
20260505152012 78 139 10.4 19.1 0.00 0.00 0.00 35 1004.6
20260505151811 78 137 10.4 19.1 0.00 0.00 0.00 35 1004.6
20260505151611 79 132 10.4 20.0 0.00 0.00 0.00 35 1004.7
20260505151411 79 131 10.4 20.0 0.00 0.00 0.00 35 1004.8
20260505151211 79 129 9.6 20.0 0.00 0.00 0.00 35 1004.8
20260505150811 79 133 10.4 25.2 0.00 0.00 0.00 35 1004.8
20260505150611 79 137 11.3 25.2 0.00 0.00 0.00 35 1004.8
20260505150411 79 138 11.3 25.2 0.00 0.00 0.00 35 1004.8
20260505150211 79 137 11.3 26.9 0.00 0.00 0.00 35 1004.9
20260505140611 80 126 11.3 17.4 0.00 0.00 0.00 35 1005.5
20260505140411 80 129 12.2 20.9 0.00 0.00 0.00 35 1005.5
20260505140211 80 131 12.2 20.9 0.00 0.00 0.00 35 1005.5
20260505130211 79 138 11.3 20.9 0.00 0.00 0.00 27 1006.1
20260505125012 79 128 11.3 20.0 0.00 0.00 0.00 26 1006.2
20260505124811 79 126 11.3 20.0 0.00 0.00 0.00 25 1006.3
20260505124611 80 128 11.3 20.0 0.00 0.00 0.00 25 1006.1
20260505124411 80 135 11.3 20.0 0.00 0.00 0.00 26 1006.2
20260505124211 79 140 11.3 21.7 0.00 0.00 0.00 25 1006.2
20260505124011 79 141 11.3 21.7 0.00 0.00 0.00 26 1006.2
20260505123811 79 142 12.2 21.7 0.00 0.00 0.00 27 1006.2
20260505123612 79 139 12.2 21.7 0.00 0.00 0.00 26 1006.2
20260505123411 79 132 12.2 21.7 0.00 0.00 0.00 26 1006.4
20260505123011 79 132 11.3 21.7 0.00 0.00 0.00 28 1006.3
20260505122811 79 132 12.2 21.7 0.00 0.00 0.00 28 1006.4
20260505122411 79 133 13.0 25.2 0.00 0.00 0.00 28 1006.5
20260505122211 79 132 13.0 25.2 0.00 0.00 0.00 29 1006.4
20260505122011 79 126 13.0 25.2 0.00 0.00 0.00 28 1006.4
20260505121812 79 123 13.0 25.2 0.00 0.00 0.00 28 1006.4
20260505121611 79 122 13.0 25.2 0.00 0.00 0.00 30 1006.5
20260505121413 79 123 13.0 24.3 0.00 0.00 0.00 30 1006.4
20260505121211 79 125 12.2 24.3 0.00 0.00 0.00 30 1006.5
20260505120811 78 125 11.3 24.3 0.00 0.00 0.00 31 1006.5
20260505120611 78 125 11.3 24.3 0.00 0.00 0.00 32 1006.5
20260505120411 78 123 10.4 23.5 0.00 0.00 0.00 32 1006.4
20260505120211 78 121 10.4 23.5 0.00 0.00 0.00 34 1006.6
20260505120011 78 125 10.4 22.6 0.00 0.00 0.00 34 1006.7
20260505115611 78 132 11.3 21.7 0.00 0.00 0.00 35 1006.6
20260505115411 77 138 11.3 21.7 0.00 0.00 0.00 36 1006.6
20260505115212 77 138 11.3 21.7 0.00 0.00 0.00 36 1006.6
20260505115011 76 132 11.3 20.9 0.00 0.00 0.00 36 1006.6
20260505114811 76 132 11.3 20.9 0.00 0.00 0.00 35 1006.8
20260505114612 76 134 11.3 21.7 0.00 0.00 0.00 35 1006.7
20260505114411 76 129 11.3 21.7 0.00 0.00 0.00 36 1006.6
20260505114211 76 131 11.3 21.7 0.00 0.00 0.00 35 1006.8
20260505114012 76 132 11.3 25.2 0.00 0.00 0.00 35 1006.8
20260505113811 76 134 11.3 25.2 0.00 0.00 0.00 35 1006.8
20260505113211 76 132 12.2 26.1 0.00 0.00 0.00 35 1006.8
20260505112811 76 134 12.2 26.1 0.00 0.00 0.00 34 1006.9
20260505112611 76 134 12.2 26.1 0.00 0.00 0.00 33 1006.9
20260505112412 76 140 11.3 21.7 0.00 0.00 0.00 33 1006.9
20260505112211 75 139 11.3 21.7 0.00 0.00 0.00 32 1007.0
20260505112011 76 137 11.3 22.6 0.00 0.00 0.00 34 1007.0
20260505111411 75 128 8.7 22.6 0.00 0.00 0.00 37 1006.9
20260505111211 75 127 7.8 22.6 0.00 0.00 0.00 37 1007.0
20260505111011 75 130 7.8 20.0 0.00 0.00 0.00 37 1007.0
20260505110811 75 134 7.8 20.0 0.00 0.00 0.00 39 1006.9
20260505110412 74 133 8.7 18.2 0.00 0.00 0.00 41 1007.1
20260505110212 74 135 9.6 18.2 0.00 0.00 0.00 41 1007.1
20260505102011 71 132 8.7 18.2 0.00 0.00 0.00 44 1007.7
20260505101812 71 131 8.7 18.2 0.00 0.00 0.00 42 1007.8
20260505101411 71 131 9.6 18.2 0.00 0.00 0.00 42 1007.8
20260505101211 71 131 9.6 18.2 0.00 0.00 0.00 43 1007.9
20260505100811 71 132 9.6 19.1 0.00 0.00 0.00 43 1007.9
20260505100411 71 133 9.6 19.1 0.00 0.00 0.00 43 1007.9
20260505100211 71 132 9.6 19.1 0.00 0.00 0.00 42 1007.9
20260505100012 71 131 9.6 19.1 0.00 0.00 0.00 43 1007.9
20260505095811 71 129 9.6 19.1 0.00 0.00 0.00 42 1007.9
20260505095611 71 130 10.4 19.1 0.00 0.00 0.00 42 1007.9
20260505095011 71 129 10.4 20.0 0.00 0.00 0.00 41 1007.9
20260505094810 71 126 10.4 20.0 0.00 0.00 0.00 41 1008.0
20260505094611 72 125 9.6 20.0 0.00 0.00 0.00 40 1008.0
20260505094411 72 127 9.6 20.0 0.00 0.00 0.00 40 1008.0
20260505094211 72 127 9.6 20.0 0.00 0.00 0.00 40 1007.9
20260505094011 72 130 9.6 18.2 0.00 0.00 0.00 41 1008.0
20260505093611 72 131 9.6 18.2 0.00 0.00 0.00 41 1008.0
20260505093411 72 127 9.6 17.4 0.00 0.00 0.00 41 1008.0
20260505093211 72 129 9.6 17.4 0.00 0.00 0.00 41 1008.1
20260505093011 72 129 10.4 17.4 0.00 0.00 0.00 41 1008.0
20260505092811 71 127 10.4 18.2 0.00 0.00 0.00 42 1008.2
20260505092611 71 125 10.4 20.0 0.00 0.00 0.00 42 1008.0
20260505092211 71 126 10.4 20.0 0.00 0.00 0.00 42 1008.0
20260505092011 71 127 10.4 20.0 0.00 0.00 0.00 42 1008.0
20260505091811 71 125 10.4 20.0 0.00 0.00 0.00 42 1008.0
20260505091611 70 128 10.4 20.0 0.00 0.00 0.00 42 1008.1
20260505091411 70 126 10.4 20.0 0.00 0.00 0.00 42 1008.0
20260505091211 70 124 11.3 20.0 0.00 0.00 0.00 43 1008.0
20260505091011 70 121 11.3 21.7 0.00 0.00 0.00 43 1008.1
20260505090811 70 122 11.3 21.7 0.00 0.00 0.00 43 1008.1
20260505090611 69 121 11.3 21.7 0.00 0.00 0.00 44 1008.1
20260505090413 69 122 11.3 21.7 0.00 0.00 0.00 43 1008.0
20260505090211 69 122 11.3 21.7 0.00 0.00 0.00 44 1008.1
20260505090012 69 121 11.3 20.0 0.00 0.00 0.00 43 1008.1
20260505085411 70 124 10.4 21.7 0.00 0.00 0.00 42 1008.2
20260505085212 71 125 10.4 24.3 0.00 0.00 0.00 42 1008.1
20260505085012 71 125 10.4 24.3 0.00 0.00 0.00 42 1008.1
20260505084812 71 125 9.6 24.3 0.00 0.00 0.00 42 1008.1
20260505084611 71 127 9.6 24.3 0.00 0.00 0.00 42 1008.2
20260505084211 71 125 9.6 21.7 0.00 0.00 0.00 42 1008.3
20260505084011 71 127 10.4 17.4 0.00 0.00 0.00 43 1008.3
20260505083811 71 128 10.4 16.5 0.00 0.00 0.00 44 1008.2
20260505083611 71 125 10.4 20.9 0.00 0.00 0.00 44 1008.2
20260505083412 70 123 10.4 20.9 0.00 0.00 0.00 44 1008.2
20260505083211 70 121 11.3 20.9 0.00 0.00 0.00 44 1008.1
20260505083011 70 121 11.3 20.9 0.00 0.00 0.00 45 1008.2
20260505082811 69 121 11.3 21.7 0.00 0.00 0.00 44 1008.2
20260505082611 69 121 11.3 21.7 0.00 0.00 0.00 45 1008.2
20260505082411 69 121 11.3 21.7 0.00 0.00 0.00 45 1008.2
20260505082211 69 121 11.3 21.7 0.00 0.00 0.00 45 1008.2
20260505082011 68 121 11.3 21.7 0.00 0.00 0.00 45 1008.2
20260505081811 68 121 11.3 21.7 0.00 0.00 0.00 45 1008.2
20260505081610 69 121 11.3 21.7 0.00 0.00 0.00 44 1008.3
20260505081411 69 122 11.3 21.7 0.00 0.00 0.00 44 1008.2
20260505081212 69 121 10.4 21.7 0.00 0.00 0.00 44 1008.1
20260505081011 69 121 10.4 20.9 0.00 0.00 0.00 44 1008.2
20260505080811 69 119 9.6 20.9 0.00 0.00 0.00 45 1008.3
20260505080611 69 120 8.7 18.2 0.00 0.00 0.00 45 1008.3
20260505080411 69 121 8.7 17.4 0.00 0.00 0.00 45 1008.2
20260505080211 69 123 7.8 17.4 0.00 0.00 0.00 46 1008.2
20260505080011 68 121 7.8 16.5 0.00 0.00 0.00 45 1008.2
20260505075613 68 117 7.8 15.6 0.00 0.00 0.00 46 1008.2
20260505075411 68 115 7.8 15.6 0.00 0.00 0.00 46 1008.4
20260505075011 67 112 7.8 19.1 0.00 0.00 0.00 48 1008.3
20260505074811 67 113 7.8 19.1 0.00 0.00 0.00 48 1008.4
20260505074411 66 116 7.0 19.1 0.00 0.00 0.00 48 1008.3
20260505074011 66 119 6.1 14.8 0.00 0.00 0.00 48 1008.3
20260505073811 66 118 6.1 14.8 0.00 0.00 0.00 48 1008.3
20260505073611 66 118 5.2 14.8 0.00 0.00 0.00 48 1008.3
20260505073211 65 120 6.1 13.0 0.00 0.00 0.00 48 1008.4
20260505073010 65 121 6.1 13.0 0.00 0.00 0.00 48 1008.4
20260505072811 65 123 6.1 13.0 0.00 0.00 0.00 48 1008.5
20260505072411 65 120 7.0 15.6 0.00 0.00 0.00 48 1008.4
20260505072011 65 115 7.0 15.6 0.00 0.00 0.00 49 1008.3
20260505071811 64 114 7.0 15.6 0.00 0.00 0.00 49 1008.3
20260505071611 64 111 7.0 15.6 0.00 0.00 0.00 49 1008.3
20260505071411 64 111 7.8 15.6 0.00 0.00 0.00 49 1008.3
20260505071210 64 113 7.8 15.6 0.00 0.00 0.00 49 1008.3
20260505071011 64 115 8.7 14.8 0.00 0.00 0.00 49 1008.3
20260505070811 64 117 8.7 14.8 0.00 0.00 0.00 49 1008.3
20260505070611 64 119 8.7 14.8 0.00 0.00 0.00 49 1008.3
20260505070011 64 120 9.6 16.5 0.00 0.00 0.00 49 1008.2
20260505065811 64 119 9.6 17.4 0.00 0.00 0.00 49 1008.2
20260505065611 64 119 9.6 18.2 0.00 0.00 0.00 49 1008.3
20260505065212 64 119 10.4 19.1 0.00 0.00 0.00 49 1008.2
20260505064811 64 119 10.4 20.0 0.00 0.00 0.00 49 1008.2
20260505064610 64 118 11.3 20.0 0.00 0.00 0.00 48 1008.2
20260505064211 64 119 12.2 20.0 0.00 0.00 0.00 48 1008.1
20260505064011 64 120 12.2 20.0 0.00 0.00 0.00 49 1008.2
20260505063811 64 120 12.2 20.0 0.00 0.00 0.00 48 1008.2
20260505063611 64 120 12.2 20.0 0.00 0.00 0.00 49 1008.2
20260505063415 64 118 12.2 20.0 0.00 0.00 0.00 48 1008.1
20260505063211 64 117 12.2 20.0 0.00 0.00 0.00 48 1008.0
20260505062811 64 117 12.2 20.9 0.00 0.00 0.00 48 1008.1
20260505062611 64 117 12.2 20.9 0.00 0.00 0.00 49 1008.0
20260505062410 64 117 11.3 20.9 0.00 0.00 0.00 49 1008.0
20260505062211 64 117 11.3 20.9 0.00 0.00 0.00 48 1008.1
20260505062011 64 116 11.3 20.9 0.00 0.00 0.00 48 1008.0
20260505061611 64 117 12.2 20.0 0.00 0.00 0.00 49 1008.0
20260505061211 64 118 12.2 20.0 0.00 0.00 0.00 49 1008.1
20260505061011 64 116 12.2 23.5 0.00 0.00 0.00 49 1008.2
20260505060811 64 116 12.2 23.5 0.00 0.00 0.00 49 1008.0
20260505060411 64 119 13.0 25.2 0.00 0.00 0.00 49 1008.0
20260505060211 64 119 13.0 25.2 0.00 0.00 0.00 49 1008.2
20260505060011 64 120 13.0 25.2 0.00 0.00 0.00 50 1007.9
20260505055811 64 118 13.0 25.2 0.00 0.00 0.00 49 1008.0
20260505055611 64 116 13.0 25.2 0.00 0.00 0.00 49 1008.1
20260505055411 64 119 12.2 25.2 0.00 0.00 0.00 49 1008.0
20260505055211 64 119 12.2 25.2 0.00 0.00 0.00 50 1008.0
20260505055010 63 118 12.2 25.2 0.00 0.00 0.00 49 1008.0
20260505054811 63 118 12.2 25.2 0.00 0.00 0.00 50 1007.9
20260505054612 63 120 12.2 20.9 0.00 0.00 0.00 49 1008.1
20260505054214 63 119 12.2 26.1 0.00 0.00 0.00 50 1008.0
20260505054011 63 120 12.2 26.1 0.00 0.00 0.00 50 1008.0
20260505053811 63 120 12.2 26.1 0.00 0.00 0.00 50 1008.0
20260505053611 63 119 12.2 26.1 0.00 0.00 0.00 49 1007.9
20260505053411 63 118 13.0 23.5 0.00 0.00 0.00 50 1008.0
20260505053214 63 117 13.0 23.5 0.00 0.00 0.00 50 1008.0
20260505053011 63 117 13.0 22.6 0.00 0.00 0.00 50 1008.0
20260505052811 63 118 13.0 23.5 0.00 0.00 0.00 49 1007.9
20260505052611 63 119 13.0 23.5 0.00 0.00 0.00 50 1008.0
20260505052411 63 119 12.2 23.5 0.00 0.00 0.00 49 1007.9
20260505052011 62 118 12.2 23.5 0.00 0.00 0.00 49 1007.8
20260505051611 62 116 11.3 21.7 0.00 0.00 0.00 50 1007.9
20260505051411 62 115 11.3 21.7 0.00 0.00 0.00 49 1007.8
20260505051211 62 115 11.3 21.7 0.00 0.00 0.00 49 1007.8
20260505051011 62 115 10.4 19.1 0.00 0.00 0.00 49 1007.8
20260505050811 62 115 10.4 19.1 0.00 0.00 0.00 49 1007.8
20260505050611 62 116 10.4 19.1 0.00 0.00 0.00 49 1008.0
20260505050411 62 117 10.4 19.1 0.00 0.00 0.00 49 1008.0
20260505050211 62 119 10.4 18.2 0.00 0.00 0.00 49 1007.9
20260505041611 62 117 12.2 22.6 0.00 0.00 0.00 48 1008.0
20260505041411 62 117 12.2 22.6 0.00 0.00 0.00 48 1008.1
20260505041211 62 117 13.0 23.5 0.00 0.00 0.00 48 1008.0
20260505041011 62 118 13.0 23.5 0.00 0.00 0.00 47 1008.0
20260505040811 62 117 13.0 23.5 0.00 0.00 0.00 47 1007.9
20260505040611 62 116 13.0 23.5 0.00 0.00 0.00 47 1008.1
20260505040411 62 116 13.0 23.5 0.00 0.00 0.00 47 1008.0
20260505040211 62 115 13.0 22.6 0.00 0.00 0.00 46 1008.1
20260505040011 62 114 13.0 21.7 0.00 0.00 0.00 46 1008.1
20260505035811 62 115 13.0 23.5 0.00 0.00 0.00 46 1008.0
20260505035610 62 117 13.0 23.5 0.00 0.00 0.00 46 1008.1
20260505035411 62 117 13.0 23.5 0.00 0.00 0.00 46 1008.0
20260505035211 62 117 12.2 23.5 0.00 0.00 0.00 46 1008.0
20260505035011 62 119 12.2 23.5 0.00 0.00 0.00 46 1007.9
20260505034811 62 117 12.2 20.9 0.00 0.00 0.00 46 1008.1
20260505034611 62 117 12.2 20.9 0.00 0.00 0.00 46 1008.0
20260505034411 62 118 12.2 20.9 0.00 0.00 0.00 46 1008.0
20260505034210 62 118 12.2 20.9 0.00 0.00 0.00 46 1008.1
20260505033810 62 119 12.2 20.9 0.00 0.00 0.00 45 1008.0
20260505033611 62 120 12.2 20.9 0.00 0.00 0.00 45 1008.0
20260505033211 62 118 12.2 20.9 0.00 0.00 0.00 45 1008.1
20260505033010 62 119 12.2 20.9 0.00 0.00 0.00 45 1008.0
20260505032811 62 117 12.2 20.9 0.00 0.00 0.00 45 1008.2
20260505032611 62 116 12.2 21.7 0.00 0.00 0.00 44 1008.1
20260505032411 62 118 12.2 21.7 0.00 0.00 0.00 44 1008.2
20260505032210 63 117 12.2 21.7 0.00 0.00 0.00 44 1008.2
20260505031810 63 117 12.2 21.7 0.00 0.00 0.00 44 1008.0
20260505031611 63 117 12.2 20.9 0.00 0.00 0.00 44 1008.2
20260505031411 63 117 12.2 20.9 0.00 0.00 0.00 44 1008.2
20260505031010 63 118 12.2 20.9 0.00 0.00 0.00 43 1008.2
20260505030811 63 119 11.3 19.1 0.00 0.00 0.00 43 1008.3
20260505030611 63 119 11.3 19.1 0.00 0.00 0.00 43 1008.3
20260505030410 63 120 11.3 19.1 0.00 0.00 0.00 43 1008.2
20260505030211 63 119 12.2 19.1 0.00 0.00 0.00 43 1008.3
20260505030010 63 118 12.2 18.2 0.00 0.00 0.00 44 1008.3
20260505025811 63 118 12.2 18.2 0.00 0.00 0.00 44 1008.3
20260505025610 63 117 12.2 18.2 0.00 0.00 0.00 43 1008.3
20260505025210 63 116 12.2 21.7 0.00 0.00 0.00 43 1008.4
20260505025011 63 116 12.2 21.7 0.00 0.00 0.00 43 1008.4
20260505024611 63 117 11.3 21.7 0.00 0.00 0.00 43 1008.4
20260505024410 63 118 11.3 21.7 0.00 0.00 0.00 43 1008.5
20260505024211 63 119 11.3 19.1 0.00 0.00 0.00 43 1008.5
20260505024011 63 119 11.3 19.1 0.00 0.00 0.00 43 1008.5
20260505023811 63 118 12.2 19.1 0.00 0.00 0.00 43 1008.6
20260505023610 63 118 12.2 20.0 0.00 0.00 0.00 42 1008.6
20260505023411 63 119 12.2 20.0 0.00 0.00 0.00 42 1008.6
20260505023210 63 119 12.2 20.9 0.00 0.00 0.00 42 1008.6
20260505022811 64 119 12.2 20.9 0.00 0.00 0.00 42 1008.5
20260505022611 64 119 13.0 20.9 0.00 0.00 0.00 42 1008.5
20260505022211 64 116 13.9 21.7 0.00 0.00 0.00 42 1008.5
20260505022010 64 115 13.9 21.7 0.00 0.00 0.00 41 1008.5
20260505021811 64 115 14.8 24.3 0.00 0.00 0.00 41 1008.6
20260505021210 64 117 14.8 24.3 0.00 0.00 0.00 41 1008.6
20260505020810 64 118 13.9 24.3 0.00 0.00 0.00 40 1008.5
20260505020611 64 118 13.9 21.7 0.00 0.00 0.00 41 1008.5
20260505020411 64 118 13.0 21.7 0.00 0.00 0.00 41 1008.5
20260505020210 64 118 13.0 25.2 0.00 0.00 0.00 41 1008.5
20260505020011 64 118 13.0 25.2 0.00 0.00 0.00 41 1008.5
20260505015810 64 118 13.0 25.2 0.00 0.00 0.00 41 1008.6
20260505015611 64 118 13.0 25.2 0.00 0.00 0.00 41 1008.6
20260505015411 64 118 13.0 25.2 0.00 0.00 0.00 41 1008.5
20260505015210 64 117 13.0 21.7 0.00 0.00 0.00 41 1008.6
20260505015011 64 117 13.0 21.7 0.00 0.00 0.00 41 1008.6
20260505014810 64 119 13.0 23.5 0.00 0.00 0.00 41 1008.6